Dewpoint
56 58 60 61 63 66 68 68 69 69 69 66 66 67 66 65 66 71 69 64 66 67 65 63 64 63 56 57 57 56 56 56 52 61 62 63 61 59 58 55 54 52 51
55 57 58 60 60 62 63 66 67 68 68 67 65 65 65 64 67 66 65 62 64 65 65 64 61 60 64 63 57 62 58 61 55 59 62 60 59 58 55 53 53 51 51
51 53 56 58 58 60 61 61 63 65 67 67 66 64 64 64 64 65 65 63 63 65 66 65 62 62 64 59 60 59 57 59 60 53 61 60 58 56 54 53 52 52 50
48 49 52 55 57 58 59 60 60 60 62 64 66 66 64 64 64 65 65 67 66 66 66 67 64 62 62 63 61 60 59 58 57 51 56 59 58 57 55 52 50 51 50
47 48 49 51 53 54 56 58 59 59 59 59 62 63 64 64 63 65 66 67 67 65 64 65 64 60 59 62 55 61 62 54 49 47 48 54 55 55 55 54 52 51 51
46 46 47 48 49 52 53 54 55 57 58 59 58 59 62 61 55 55 59 66 65 64 61 62 62 60 58 55 55 57 60 60 58 48 48 50 57 57 56 55 52 49 48
43 43 44 46 47 49 49 50 54 55 56 58 58 58 58 60 52 52 53 62 63 64 62 60 61 62 58 58 54 54 55 54 56 60 57 56 56 57 58 57 55 53 51
40 39 38 40 42 44 47 49 51 53 55 55 55 58 59 59 52 49 49 61 63 64 64 61 60 59 59 57 58 55 54 57 58 55 60 59 59 59 60 58 58 55 51
40 40 40 40 41 42 43 46 50 51 52 53 54 57 57 59 49 49 52 59 61 61 62 60 58 58 55 49 57 56 54 56 53 52 50 50 49 49 54 56 54 52 51
40 40 41 42 43 43 44 46 46 48 50 48 49 55 54 57 51 47 51 57 59 60 61 61 55 58 49 47 59 60 57 57 57 58 58 55 54 55 51 60 55 53 53
42 41 42 43 43 44 44 45 46 47 49 50 49 51 54 56 57 47 46 56 56 58 58 58 60 48 47 46 51 62 59 59 57 59 57 56 58 59 57 58 60 55 54
42 41 42 42 41 40 44 43 44 45 46 50 51 50 49 53 51 48 45 48 53 58 57 59 59 45 44 44 48 48 50 52 60 58 53 53 53 54 56 58 60 60 57
40 41 41 41 40 41 43 42 42 44 42 42 43 43 44 48 50 46 44 44 46 56 58 53 50 47 44 46 45 46 45 57 58 57 53 51 52 52 57 59 60 60 59
38 39 39 40 41 41 40 42 40 41 41 40 40 41 41 42 46 49 47 47 45 48 49 52 52 50 47 50 52 49 55 56 56 55 53 52 54 56 55 55 57 58 55
37 36 38 38 39 40 41 41 40 41 40 40 39 39 40 40 40 43 45 46 46 45 47 51 51 50 50 51 50 52 53 56 56 56 57 55 53 52 51 57 57 57 56
38 38 37 38 38 38 39 39 40 39 39 38 38 39 40 38 39 39 39 41 41 40 47 46 48 49 50 48 48 47 49 51 52 52 53 53 52 51 50 56 56 56 56
37 37 38 39 37 37 38 39 38 39 40 39 38 38 38 38 37 38 38 38 38 40 46 43 43 45 45 46 45 44 44 47 51 51 50 50 50 51 50 50 55 55 55
37 37 38 38 37 38 37 38 38 39 38 39 39 39 38 38 37 37 38 38 40 40 41 40 41 42 42 42 43 43 43 44 45 46 47 49 48 47 47 47 48 54 55
36 36 37 37 37 38 38 38 38 38 38 38 39 39 39 38 37 37 37 40 40 40 41 40 40 40 41 41 42 43 45 43 43 43 45 47 46 45 46 45 46 44 50
36 36 35 36 36 37 36 37 37 37 38 38 39 38 39 40 41 40 40 41 41 41 41 42 42 41 42 42 42 44 43 45 46 45 45 46 45 44 44 45 45 47 51
35 35 33 36 36 36 36 36 37 36 36 37 36 37 36 40 41 40 40 41 41 41 41 42 41 42 43 44 44 45 44 45 45 45 45 46 46 45 45 45 45 45 49
34 35 35 35 36 35 35 35 36 37 36 36 37 37 33 39 40 41 42 41 41 41 41 41 42 41 41 42 42 44 44 45 44 45 45 45 45 45 45 45 44 45 50
35 35 35 35 36 35 36 35 35 34 35 36 37 37 38 38 39 39 39 41 42 41 42 43 43 42 43 43 43 43 42 44 45 44 43 46 48 46 46 46 44 44 50
35 35 35 35 35 35 36 36 34 36 37 37 37 37 38 38 39 39 39 41 41 43 44 44 43 42 43 43 44 44 43 43 44 45 46 48 48 48 49 48 48 47 50
35 34 34 34 34 35 35 36 36 36 37 38 38 38 38 38 38 39 40 40 41 42 44 44 44 43 43 43 42 43 42 37 43 41 49 49 49 49 49 50 49 52 52
35 35 34 34 34 34 34 35 35 36 36 36 37 39 40 39 39 40 40 41 41 42 42 43 44 44 44 43 44 41 36 35 40 36 46 51 51 52 49 49 48 54 53
Lifted_Index
0 -0 -1 -2 -3 -4 -6 -7 -8 -9 -8 -8 -7 -7 -7 -6 -6 -6 -5 -4 -4 -4 -3 -3 -2 -2 -1 -1 -1 -0 -1 -1 -1 -1 -1 0 1 1 1 1 1 1 2
1 1 -0 -1 -2 -2 -3 -5 -7 -8 -8 -8 -7 -7 -7 -6 -6 -6 -5 -4 -4 -4 -4 -3 -3 -2 -2 -1 -1 -1 -1 -1 -1 -1 -1 0 1 2 1 1 1 1 2
3 2 1 1 -0 -0 -1 -2 -4 -5 -7 -8 -8 -7 -7 -6 -6 -6 -5 -5 -5 -5 -5 -4 -3 -3 -2 -2 -1 -1 -1 -1 -0 -0 -0 1 2 2 2 1 1 1 2
5 4 3 2 2 1 0 -0 -1 -3 -4 -6 -6 -6 -6 -6 -6 -6 -6 -5 -5 -5 -5 -5 -4 -3 -2 -2 -2 -1 -1 -1 1 1 1 1 2 3 3 2 2 1 1
6 6 5 4 3 3 2 1 0 -1 -2 -3 -3 -4 -4 -4 -5 -5 -5 -5 -5 -4 -4 -3 -3 -2 -2 -2 -1 -1 -1 0 1 2 2 2 2 3 4 3 2 1 1
7 6 6 5 5 4 3 3 2 1 0 -0 -1 -2 -2 -3 -3 -3 -3 -3 -3 -3 -2 -1 -1 -0 -1 -0 -0 -0 -0 1 1 2 2 2 2 2 3 4 3 2 1
7 7 7 6 6 5 5 4 3 2 2 1 0 -0 -1 -1 -1 -1 -1 -1 -2 -2 -1 -0 0 1 1 1 1 1 1 1 1 1 1 1 1 2 2 3 4 3 1
7 7 7 7 7 6 6 5 4 3 3 2 2 1 0 -0 0 0 0 -0 -1 -2 -2 -1 0 1 1 1 1 1 2 1 2 1 1 1 1 2 2 3 4 3 2
5 5 6 6 6 6 6 5 5 4 3 3 2 2 1 1 1 1 1 1 0 -1 -1 -1 -0 1 2 1 1 1 1 1 2 2 2 2 2 3 2 3 4 4 3
5 5 5 5 5 5 5 5 4 4 3 3 2 2 1 1 1 2 2 1 1 0 -0 -0 -0 0 1 1 1 -0 -0 0 1 1 2 2 3 3 3 3 4 4 4
7 7 6 6 6 5 5 4 4 3 3 2 2 2 1 1 1 1 2 2 2 1 1 0 0 1 1 1 1 -0 -1 -1 -0 0 1 2 2 3 3 3 3 3 3
9 9 9 8 8 7 6 5 4 4 2 1 1 1 1 1 1 2 2 2 2 2 2 1 1 2 2 2 1 0 -0 -1 -1 0 1 1 2 2 2 2 2 3 3
11 11 11 11 10 10 8 7 6 5 3 2 1 1 1 1 2 2 2 2 2 2 2 2 2 2 1 1 1 1 0 -0 -0 0 1 1 2 2 2 2 2 3 3
14 14 13 13 13 12 11 9 8 6 5 3 2 1 1 1 2 3 3 3 2 3 3 3 3 2 2 1 1 1 1 0 0 0 1 1 1 2 2 2 3 3 3
16 16 15 15 15 14 13 11 10 8 7 5 4 2 2 1 2 3 3 3 3 3 3 3 4 4 3 3 3 2 1 1 1 1 1 1 1 2 2 2 3 3 4
17 17 17 16 16 15 14 13 12 11 9 7 6 5 4 3 3 3 4 4 4 4 4 4 4 4 4 4 4 4 3 2 2 1 1 1 1 2 2 2 2 3 4
17 17 17 17 16 16 15 14 13 12 11 10 9 7 6 6 5 5 5 5 5 4 4 4 4 4 4 4 5 5 4 4 4 3 2 2 2 2 2 2 2 3 3
16 16 16 16 16 16 15 15 14 13 12 12 11 10 9 8 7 7 7 6 6 6 5 5 4 4 5 4 4 5 5 4 4 4 4 3 3 3 3 3 3 3 3
15 15 16 16 15 15 15 15 14 14 13 12 12 11 11 10 9 9 8 8 7 7 6 6 5 5 5 4 4 4 4 4 4 4 4 4 4 4 4 4 3 3 3
14 14 15 15 15 15 15 14 14 13 12 12 12 12 12 11 11 10 10 9 8 7 7 6 6 5 5 4 4 4 4 3 3 4 4 4 4 4 4 4 4 3 3
13 13 13 14 14 14 14 14 13 12 12 11 11 12 12 12 11 11 11 10 10 9 8 7 7 6 6 6 5 5 4 3 3 3 3 3 3 3 4 4 4 3 3
12 12 12 12 13 13 13 13 12 12 11 10 10 11 11 11 11 11 11 11 11 10 9 9 8 7 7 7 7 6 5 4 3 3 3 3 3 3 3 3 3 3 3
12 12 11 11 11 12 11 11 11 11 10 9 9 9 9 10 10 11 11 11 11 11 10 10 9 9 8 8 8 7 6 5 4 4 3 3 3 2 2 2 2 2 2
11 11 11 11 10 10 10 10 10 10 9 9 8 8 8 9 9 9 10 11 11 11 11 10 10 10 9 9 9 8 7 6 5 4 3 3 2 2 2 1 1 1 1
11 11 10 10 10 10 10 10 10 10 9 9 9 8 8 8 8 8 9 10 10 10 11 11 11 10 10 10 9 8 6 5 4 4 3 2 2 2 2 1 0 0 0
10 10 10 10 10 10 9 9 10 10 10 9 9 9 9 8 8 8 8 9 9 9 10 11 11 11 11 10 9 7 6 5 4 4 3 2 2 2 2 1 0 0 0